Temperature
21 21 20 20 20 20 20 20 19 19 19 19 19 19 18 18 18 18 18 18 17 17 17 17 17 17 17 17 17 17 16 16 17 17 16 16 16 16 16 16 16 16 16
20 20 20 20 20 20 20 20 19 19 19 19 19 18 18 18 18 18 18 17 17 17 17 17 17 17 17 17 16 16 16 16 16 16 16 16 16 16 15 16 15 15 15
20 20 20 20 20 20 20 19 19 19 19 19 18 18 18 18 18 18 18 17 17 17 17 17 17 17 17 17 16 16 16 16 16 16 16 16 15 15 15 15 15 15 15
20 19 19 20 20 20 20 19 19 19 19 18 18 18 18 18 18 18 17 17 17 17 17 17 17 17 17 16 16 16 16 16 16 16 16 16 15 15 15 15 15 15 15
19 19 19 20 20 19 19 19 19 19 18 18 18 18 18 18 18 18 17 17 17 17 17 17 17 17 17 16 16 16 16 16 16 16 16 16 15 15 15 15 15 15 14
19 19 19 19 19 19 19 19 19 18 18 18 18 17 17 17 17 17 17 17 17 17 17 16 16 16 17 17 16 16 16 16 15 15 16 15 15 15 15 15 15 14 14
19 19 19 19 18 18 18 18 18 18 18 17 17 17 17 17 17 17 17 17 16 16 16 16 16 16 16 16 16 16 16 16 16 15 15 15 15 15 14 14 14 14 14
18 18 18 18 18 18 18 17 17 17 17 17 17 17 17 17 17 17 17 16 16 16 16 16 16 16 16 16 15 15 15 15 15 15 15 15 15 15 14 14 14 14 14
18 18 17 17 17 17 17 17 17 17 17 17 16 16 16 16 16 17 16 16 16 15 15 15 15 15 16 15 15 15 15 15 15 15 15 15 15 14 14 14 14 14 14
17 17 16 16 16 17 17 16 16 16 16 16 16 16 16 16 16 16 16 15 15 15 15 15 15 15 15 15 15 14 14 14 14 14 14 14 14 14 14 14 13 13 14
16 16 16 16 16 16 16 16 15 15 15 15 15 15 15 15 15 16 15 15 15 15 14 14 14 15 15 15 14 14 14 14 14 14 14 14 13 13 13 13 13 13 13
16 15 15 15 15 15 15 15 15 15 15 15 14 15 15 15 15 15 15 15 14 14 14 14 14 14 14 14 14 14 14 14 13 13 13 13 13 13 13 13 13 13 13
15 15 15 15 15 14 14 14 14 14 14 14 14 14 14 14 14 14 14 14 14 14 14 13 13 14 13 13 13 13 13 13 13 13 13 13 13 13 12 12 12 12 12
14 14 14 14 14 14 14 14 14 14 14 14 14 14 14 14 14 14 14 13 13 13 13 13 13 13 13 13 13 13 13 13 12 12 12 12 12 12 12 12 12 12 12
14 14 14 14 13 13 13 13 13 13 13 13 13 13 13 13 13 13 13 13 13 12 12 12 12 12 12 12 12 12 12 12 12 12 12 12 12 12 12 12 11 11 11
13 13 13 13 13 13 13 13 13 13 13 13 13 12 12 12 13 13 13 12 12 12 12 12 12 12 12 12 12 12 12 12 12 11 11 11 11 11 11 11 11 11 11
12 12 12 12 12 12 12 12 12 12 12 12 12 12 12 12 12 12 12 12 12 12 11 11 11 11 11 11 11 11 11 11 11 11 11 11 11 11 11 10 10 10 10
12 12 12 12 12 12 12 12 12 11 11 11 12 12 12 12 12 12 11 11 11 11 11 11 11 11 11 11 11 11 11 10 10 10 10 10 10 10 10 10 10 9 9
11 11 11 11 11 11 11 11 11 11 11 11 11 11 11 11 11 11 11 10 10 10 10 10 10 10 10 10 10 10 10 10 10 10 10 9 9 10 9 9 9 9 9
11 11 11 11 11 11 11 11 11 10 10 10 10 10 10 10 10 10 10 10 10 10 9 10 10 9 9 9 9 9 9 9 9 9 9 9 9 9 9 9 9 9 9
10 10 10 10 10 10 10 10 10 10 10 10 10 10 9 9 9 9 9 9 9 9 9 9 9 9 9 9 9 9 9 9 9 9 9 9 9 9 9 9 9 9 9
10 10 10 10 10 10 10 10 10 9 9 9 9 9 9 9 9 9 9 9 9 8 8 8 8 8 8 8 8 8 8 8 8 8 8 8 8 8 8 8 8 8 8
10 10 10 9 9 9 9 9 9 9 9 9 9 9 9 9 9 8 8 8 8 8 8 8 8 8 8 8 8 8 8 8 8 8 8 8 8 8 8 8 8 8 8
9 9 9 9 9 9 9 9 9 9 9 9 9 8 8 8 8 8 8 8 8 7 7 7 7 7 7 7 7 7 7 7 7 7 7 7 7 7 7 7 7 7 7
9 9 9 9 9 9 9 8 8 8 8 8 8 8 8 8 8 8 7 7 7 7 7 7 7 7 7 7 7 7 7 7 7 7 6 6 6 6 6 6 7 7 6
9 9 9 9 8 8 8 8 8 8 8 8 8 8 8 7 7 7 7 7 7 7 6 6 6 6 6 6 6 6 6 6 6 6 6 6 6 6 6 6 6 6 6
Wind_Speed
11 11 10 9 9 9 8 8 8 8 8 8 7 7 7 7 6 7 7 6 7 7 6 7 7 6 5 5 5 5 5 5 6 4 2 2 2 3 2 3 4 5 6
10 10 10 9 9 9 9 9 8 8 8 8 8 8 8 7 7 7 8 7 7 7 7 7 7 6 6 6 5 6 5 5 6 5 4 3 3 4 3 4 4 4 4
9 9 9 9 9 9 9 8 8 8 8 8 8 8 8 8 8 8 8 8 8 8 7 7 7 7 7 6 6 6 6 6 5 6 5 3 4 4 4 4 4 4 4
9 9 9 8 8 9 8 8 8 8 8 8 8 8 8 8 8 8 8 8 8 8 7 8 8 8 8 7 7 7 6 6 6 6 5 5 4 4 5 5 4 4 4
8 8 8 7 7 6 6 7 7 7 8 8 8 8 8 7 8 8 8 8 8 8 7 8 8 7 6 6 6 6 6 6 6 6 6 5 5 4 5 5 5 4 5
6 7 6 6 5 5 5 5 6 7 7 8 8 8 8 7 5 5 7 7 7 8 8 8 8 8 8 8 7 6 6 7 7 7 6 6 6 6 5 6 5 5 4
6 6 5 5 4 4 5 6 6 7 7 7 8 8 8 7 6 6 7 7 7 7 7 7 7 6 8 8 8 10 8 7 7 7 7 7 6 5 6 7 6 6 5
4 4 4 3 4 4 5 6 6 6 6 6 6 7 7 6 7 7 7 8 7 7 7 7 7 6 6 7 7 8 8 8 8 8 7 7 6 4 6 7 6 6 6
3 3 3 3 3 4 5 5 5 5 5 5 6 6 6 5 6 8 8 7 6 7 7 7 7 7 5 6 8 8 8 7 7 7 6 5 3 3 4 5 5 6 5
1 1 1 2 3 3 4 4 4 4 5 5 4 5 5 5 6 8 8 6 6 6 6 6 5 6 5 6 8 8 8 7 6 6 6 6 5 4 5 6 6 6 5
0 1 1 2 2 2 2 3 4 4 4 4 4 4 5 5 5 7 7 6 6 6 6 6 5 5 6 7 8 7 6 6 5 6 5 5 4 4 5 5 5 5 5
1 0 1 2 2 1 2 3 3 3 3 3 3 4 4 4 4 5 7 7 6 6 6 5 3 5 5 6 5 4 5 6 5 5 4 4 4 4 3 4 4 4 4
0 1 1 2 2 2 3 3 3 3 3 3 3 4 4 3 3 6 8 8 7 6 4 2 3 6 7 6 6 6 6 5 5 5 5 5 4 4 3 3 4 4 4
1 1 1 2 2 2 2 2 2 2 2 3 3 3 3 3 3 3 3 4 6 5 4 4 6 6 6 4 5 5 4 4 4 5 5 4 4 4 4 4 4 4 3
1 1 2 2 2 1 1 2 3 2 2 3 3 3 4 4 2 1 2 3 4 3 3 3 4 4 4 4 4 4 4 4 4 4 4 4 4 4 4 4 3 4 4
1 2 2 2 2 2 1 1 3 1 2 2 3 4 3 2 1 2 2 1 2 3 4 4 4 5 5 4 4 4 4 4 4 4 4 4 4 4 3 3 3 4 4
2 2 2 2 2 2 2 2 2 0 1 0 1 1 2 2 2 3 4 4 5 6 5 5 4 4 4 4 4 4 4 3 3 4 4 4 4 4 3 3 3 4 4
2 2 2 2 2 2 2 2 2 3 2 1 1 1 2 3 3 3 4 3 3 4 4 4 4 4 4 4 4 4 4 4 4 3 3 3 4 4 4 4 4 4 4
3 2 2 2 2 2 2 2 2 3 3 2 1 1 2 3 3 3 4 3 3 3 3 3 3 3 3 3 3 3 3 3 3 3 3 4 4 4 4 4 4 4 5
1 1 2 2 2 2 2 2 2 3 2 2 2 2 1 2 1 1 2 2 2 2 2 2 3 3 3 3 2 2 3 3 3 3 3 4 4 4 4 5 4 4 4
2 1 2 2 2 2 2 2 2 2 2 1 1 1 2 2 2 2 2 2 2 2 2 2 2 3 3 3 2 3 3 3 3 3 4 4 4 4 4 5 5 5 5
2 2 1 1 1 2 2 2 1 1 1 1 1 1 2 2 2 1 1 1 1 2 2 2 2 2 2 2 2 3 3 3 3 4 4 4 4 4 4 4 4 4 4
1 1 1 1 1 1 1 1 1 1 1 1 1 1 1 1 1 1 1 1 1 1 1 2 2 2 2 2 2 3 3 3 4 4 4 4 4 4 4 4 4 4 4
1 1 1 1 1 1 1 1 1 1 1 1 1 1 1 1 1 1 1 1 1 2 2 2 2 3 3 2 2 2 1 2 3 3 4 4 4 4 4 4 4 4 4
0 0 1 1 1 1 1 1 1 1 1 1 1 1 1 1 1 1 1 1 1 1 2 2 2 2 2 2 2 1 2 3 3 4 4 4 5 4 4 4 4 5 5
1 1 1 1 1 1 1 1 1 1 1 1 1 1 1 1 1 1 1 1 1 1 1 1 1 1 2 2 1 1 1 1 2 5 5 4 4 4 4 5 6 6 5
Wind_Direction
197 196 200 200 204 210 213 219 217 218 212 211 213 214 212 208 208 212 220 216 222 225 229 228 232 244 247 243 238 242 245 250 257 261 247 203 213 243 214 231 217 214 194
194 195 200 200 202 209 215 219 219 218 215 213 213 214 217 214 210 214 220 221 226 230 232 233 235 230 232 242 241 241 239 238 248 258 252 231 221 224 226 236 229 227 219
189 196 199 201 201 207 217 218 217 218 216 215 212 215 219 218 216 218 222 226 229 233 234 234 235 233 235 233 236 240 238 234 236 246 245 230 225 211 219 231 235 238 233
187 195 199 201 205 209 212 214 214 214 215 215 216 219 219 218 218 218 219 225 230 234 235 236 236 235 237 236 235 237 240 241 235 243 243 230 227 215 220 228 230 220 231
184 188 193 196 202 205 208 211 212 213 216 216 218 220 220 218 218 215 217 221 228 235 237 239 238 235 241 244 247 237 232 237 239 240 242 238 234 225 231 233 233 228 220
187 189 190 190 192 200 210 214 214 216 219 216 217 218 218 221 195 213 232 227 229 234 238 243 239 227 226 224 242 250 248 239 242 244 243 245 245 241 241 243 240 236 238
179 184 182 183 190 205 217 219 218 216 217 219 220 219 221 216 187 201 228 236 235 238 239 242 246 234 226 228 217 219 230 238 244 249 250 253 251 241 240 240 241 241 246
168 169 169 180 181 192 209 216 219 221 219 222 228 226 225 218 191 199 217 227 235 237 239 241 243 242 238 237 232 226 227 227 230 237 250 259 262 259 238 242 243 237 240
162 160 171 190 188 199 213 221 225 229 231 231 232 234 231 219 196 200 216 225 229 236 240 242 244 240 231 236 236 233 230 227 214 208 226 244 264 256 249 237 231 230 238
161 168 193 213 218 218 227 234 235 234 235 239 237 239 236 229 198 198 213 228 231 236 237 234 235 242 226 223 230 233 234 232 231 217 215 223 228 219 221 237 241 242 243
71 162 208 233 239 237 245 245 243 236 235 244 247 234 229 229 198 194 207 227 233 238 240 235 228 198 205 216 234 236 236 242 233 228 222 219 218 220 223 230 249 255 253
55 260 252 255 267 261 241 244 243 234 225 236 240 231 224 223 213 196 197 221 253 239 242 241 215 157 186 204 216 229 236 241 235 229 225 219 219 222 220 223 232 249 262
303 277 263 251 251 245 239 234 230 229 229 232 242 243 242 234 205 188 193 207 230 236 241 223 172 180 192 196 202 219 225 229 233 230 228 228 223 220 217 209 217 223 235
264 262 244 239 243 240 255 255 247 240 241 242 256 266 261 247 246 228 211 207 208 221 224 177 175 197 210 203 198 204 218 229 236 238 239 238 233 220 216 215 219 215 226
287 273 261 252 248 243 270 318 285 290 277 261 267 273 275 267 266 311 256 232 232 228 220 208 214 209 212 210 210 211 216 215 225 237 239 232 227 222 220 220 224 231 228
257 267 272 259 243 238 231 317 37 353 8 336 295 279 294 305 214 168 172 186 195 198 212 217 219 221 224 223 221 217 214 218 224 229 232 231 227 225 226 226 228 228 230
269 272 274 268 253 244 240 243 267 281 152 257 311 297 251 248 223 211 202 192 197 193 211 218 221 226 229 229 231 233 230 221 221 226 228 227 225 226 225 225 228 234 236
279 276 267 267 267 260 260 261 266 271 277 282 202 176 207 207 206 221 212 197 208 206 218 217 220 224 228 229 231 233 235 229 221 222 224 224 224 226 227 227 224 230 239
279 281 286 289 282 279 279 276 270 267 263 255 245 207 194 195 188 205 210 225 220 225 230 228 229 231 234 239 240 239 243 241 232 226 220 224 229 231 234 236 232 215 232
276 294 279 281 283 281 278 273 271 268 261 252 249 252 220 218 220 189 204 223 225 233 237 237 240 244 239 240 239 239 241 238 234 234 235 236 235 236 234 234 235 234 235
281 250 231 255 266 280 287 284 283 278 270 268 268 299 295 248 236 220 218 219 219 226 231 235 235 232 230 232 237 239 238 242 245 246 244 243 243 241 241 238 235 236 235
288 277 277 287 290 296 297 294 295 289 280 275 267 218 230 251 253 242 229 231 240 240 234 234 243 245 245 244 241 242 239 238 244 248 246 242 238 238 239 238 237 237 237
287 293 300 315 304 243 261 272 282 294 305 307 304 278 248 265 276 275 275 270 264 257 243 233 240 252 261 264 264 257 253 249 247 248 251 249 244 240 239 237 237 241 240
319 303 302 326 339 342 357 10 356 335 319 306 297 302 307 309 303 293 290 279 256 251 252 244 241 247 257 266 277 280 304 310 288 263 254 252 250 249 249 247 248 245 243
3 1 338 347 14 16 13 6 358 349 328 317 297 270 274 283 279 286 290 280 266 261 262 258 251 254 255 253 271 307 3 1 324 295 264 250 244 244 248 251 251 250 245
19 13 8 29 43 38 29 11 4 351 335 339 348 344 334 309 287 279 282 283 279 276 267 253 254 266 270 268 281 12 39 339 306 296 275 254 248 245 247 249 251 248 244
Height
1500 1503 1506 1508 1510 1512 1513 1514 1515 1517 1518 1519 1520 1521 1522 1522 1523 1524 1525 1526 1526 1526 1526 1526 1526 1526 1527 1527 1527 1527 1528 1528 1528 1528 1528 1527 1526 1526 1526 1525 1525 1524 1524
1497 1499 1502 1504 1506 1508 1510 1511 1512 1513 1514 1516 1516 1517 1518 1519 1519 1520 1521 1522 1523 1523 1523 1523 1523 1523 1523 1523 1524 1524 1524 1524 1524 1524 1524 1524 1523 1523 1523 1522 1522 1522 1521
1494 1496 1498 1500 1502 1504 1505 1506 1508 1509 1510 1512 1512 1513 1514 1515 1515 1516 1517 1518 1519 1519 1519 1519 1519 1519 1519 1520 1520 1520 1521 1521 1520 1521 1521 1521 1520 1520 1520 1520 1519 1519 1519
1490 1492 1494 1496 1498 1499 1500 1502 1503 1504 1506 1507 1508 1509 1510 1511 1511 1512 1513 1514 1514 1515 1515 1515 1516 1516 1516 1516 1516 1516 1517 1517 1517 1517 1518 1517 1517 1517 1516 1516 1516 1516 1515
1487 1489 1490 1492 1494 1495 1497 1498 1499 1500 1502 1503 1504 1505 1506 1506 1507 1508 1509 1509 1510 1510 1511 1511 1511 1511 1512 1512 1513 1513 1513 1513 1514 1514 1514 1514 1514 1513 1513 1513 1513 1513 1512
1484 1486 1487 1489 1490 1491 1493 1494 1495 1496 1497 1498 1499 1500 1501 1502 1503 1504 1504 1505 1505 1506 1506 1507 1507 1506 1507 1507 1508 1509 1509 1509 1510 1510 1510 1510 1510 1510 1510 1510 1510 1510 1509
1481 1482 1484 1485 1486 1487 1489 1491 1492 1492 1493 1493 1494 1495 1496 1496 1497 1499 1500 1500 1501 1501 1501 1502 1503 1503 1503 1503 1503 1504 1504 1504 1505 1505 1506 1505 1506 1506 1506 1506 1506 1506 1505
1478 1479 1481 1482 1482 1483 1485 1487 1487 1488 1488 1489 1490 1490 1491 1491 1492 1493 1495 1495 1496 1496 1496 1497 1497 1498 1498 1499 1500 1500 1500 1500 1500 1501 1501 1501 1501 1501 1501 1502 1502 1501 1501
1475 1476 1477 1479 1479 1480 1482 1483 1483 1484 1484 1484 1485 1485 1485 1486 1488 1488 1489 1490 1490 1491 1491 1492 1492 1493 1493 1494 1495 1495 1495 1495 1496 1496 1496 1496 1496 1497 1497 1498 1498 1498 1497
1473 1473 1474 1476 1476 1477 1477 1479 1480 1479 1479 1480 1480 1480 1480 1481 1482 1483 1484 1485 1485 1486 1487 1487 1487 1488 1489 1489 1490 1490 1491 1491 1491 1492 1492 1492 1492 1493 1493 1493 1494 1494 1494
1471 1471 1472 1473 1473 1473 1474 1475 1475 1475 1475 1475 1474 1474 1475 1477 1477 1478 1479 1480 1481 1482 1482 1483 1483 1483 1484 1484 1485 1486 1486 1487 1487 1487 1488 1488 1488 1488 1489 1489 1489 1490 1490
1469 1469 1470 1470 1470 1471 1471 1471 1471 1471 1471 1470 1470 1470 1471 1472 1473 1473 1474 1475 1476 1478 1478 1479 1479 1479 1479 1479 1480 1481 1482 1482 1483 1483 1484 1484 1484 1484 1484 1484 1484 1484 1484
1467 1467 1468 1468 1467 1468 1468 1468 1468 1468 1468 1467 1468 1468 1469 1469 1469 1469 1470 1471 1472 1473 1473 1474 1474 1474 1475 1475 1476 1476 1478 1479 1479 1480 1479 1480 1480 1480 1480 1480 1480 1480 1480
1465 1465 1466 1466 1466 1466 1465 1466 1465 1465 1465 1465 1464 1465 1465 1465 1465 1466 1467 1467 1468 1469 1469 1470 1470 1470 1471 1471 1472 1472 1473 1474 1474 1475 1475 1476 1476 1476 1476 1477 1477 1476 1476
1463 1463 1463 1463 1463 1463 1462 1462 1462 1461 1462 1461 1461 1460 1460 1461 1462 1462 1462 1463 1464 1464 1465 1466 1466 1467 1467 1467 1468 1468 1469 1469 1470 1471 1471 1471 1472 1472 1472 1473 1473 1473 1472
1461 1461 1461 1461 1460 1460 1460 1459 1458 1458 1458 1458 1457 1458 1458 1458 1458 1458 1458 1459 1459 1460 1461 1462 1462 1463 1463 1464 1464 1464 1465 1465 1465 1466 1467 1467 1467 1468 1468 1468 1468 1469 1469
1458 1458 1459 1458 1458 1457 1457 1456 1456 1455 1455 1454 1454 1454 1454 1454 1454 1454 1454 1455 1455 1456 1457 1457 1458 1459 1459 1460 1460 1460 1461 1461 1461 1462 1462 1463 1463 1464 1464 1464 1465 1465 1465
1456 1456 1456 1455 1455 1455 1454 1453 1453 1452 1452 1451 1451 1451 1450 1450 1450 1450 1450 1451 1451 1452 1453 1453 1454 1455 1455 1456 1456 1456 1457 1457 1457 1458 1458 1459 1459 1460 1461 1461 1461 1461 1461
1454 1454 1453 1453 1452 1452 1451 1451 1450 1450 1449 1448 1448 1448 1447 1447 1447 1447 1447 1448 1448 1449 1450 1450 1451 1451 1452 1452 1452 1453 1454 1454 1454 1454 1454 1455 1456 1457 1457 1457 1458 1457 1458
1451 1450 1450 1450 1449 1449 1448 1448 1448 1447 1446 1446 1445 1445 1445 1445 1445 1444 1444 1445 1445 1446 1446 1447 1447 1447 1448 1448 1449 1449 1450 1450 1451 1451 1451 1452 1452 1453 1453 1454 1454 1454 1454
1448 1447 1447 1447 1447 1446 1446 1446 1445 1444 1444 1443 1443 1443 1443 1443 1442 1442 1442 1442 1442 1443 1443 1444 1444 1444 1445 1445 1445 1446 1447 1447 1447 1447 1448 1448 1449 1449 1449 1450 1450 1451 1451
1445 1445 1445 1444 1444 1444 1443 1443 1442 1441 1441 1441 1440 1440 1440 1440 1440 1439 1439 1440 1440 1440 1440 1441 1441 1441 1442 1442 1442 1443 1443 1443 1444 1444 1444 1445 1445 1445 1446 1446 1446 1447 1447
1443 1443 1442 1442 1442 1441 1441 1441 1440 1439 1439 1438 1438 1437 1437 1437 1437 1437 1437 1437 1437 1437 1437 1437 1438 1438 1439 1439 1439 1439 1440 1440 1440 1440 1440 1441 1441 1442 1442 1442 1443 1443 1444
1441 1441 1441 1440 1440 1440 1439 1439 1438 1438 1437 1436 1436 1435 1435 1434 1434 1434 1434 1434 1434 1434 1435 1435 1435 1435 1435 1435 1435 1435 1435 1435 1435 1436 1436 1436 1437 1438 1439 1439 1439 1440 1440
1440 1440 1439 1439 1439 1438 1438 1438 1437 1437 1436 1435 1434 1434 1433 1433 1432 1432 1432 1432 1432 1432 1432 1432 1432 1432 1431 1431 1431 1431 1431 1431 1431 1431 1432 1433 1433 1434 1435 1436 1436 1436 1436
1439 1439 1438 1438 1437 1437 1437 1437 1436 1435 1435 1434 1433 1432 1432 1431 1431 1430 1430 1430 1429 1429 1428 1428 1428 1428 1427 1427 1427 1426 1426 1426 1427 1427 1428 1429 1430 1430 1431 1432 1433 1433 1433